Location: Kaarina
(60.4167°N, 22.4167°E)
Time: 04:19:28
(UTC+03:00)

Meteor 1-11 Rocket - Pass Details

Date: 24 August 2019
Orbit: 831 x 916 km, 81.2° (Epoch: 20 September)

Event Time Altitude Azimuth Distance (km) Brightness Sun altitude
Rises 23:02:40 0° 210° (SSW) 3,538 6.7 -12.6°
Reaches altitude 10° 23:05:11 10° 214° (SW) 2,605 6.1 -12.8°
Maximum altitude 23:11:04 60° 294° (WNW) 1,051 4.5 -13.3°
Drops below altitude 10° 23:17:00 10° 14° (NNE) 2,618 6.9 -13.7°
Sets 23:19:32 0° 19° (NNE) 3,558 7.5 -13.9°
